{"data":{"norad_id":57899,"intl_designator":"2023-146J","name":"STARLINK-30481","alt_names":[],"object_type":"PAYLOAD","status":"ACTIVE","operator":null,"country":"US","launch_date":"2023-09-20","launch_site_code":"AFETR","launch_vehicle":null,"mission":null,"orbit_class":"UNKNOWN","rcs_meters":null,"size_class":null,"mass_kg":null,"dimensions":null,"purposes":["comms"],"wikipedia_slug":null,"has_3d_model":false,"image_url":null,"decayed_at":null,"tle_current":{"epoch":"2026-09-20T03:21:30.880800Z","epoch_age_seconds":165731,"freshness":"FRESH","line1":"1 57899U 23146J   26263.13994075 -.00000625  00000+0 -13191-4 0  9994","line2":"2 57899  43.0052 296.1597 0001716 268.4256  91.6399 15.27575377166796","mean_motion":15.27575377,"eccentricity":0.0001716,"inclination_deg":43.0052,"raan_deg":296.1597,"arg_perigee_deg":268.4256,"mean_anomaly_deg":91.6399,"bstar":-1.3191e-5,"rev_number":16679,"period_min":94.2670339992,"perigee_km":481.88555709015,"apogee_km":484.24032090921,"semimajor_km":6861.1999389997,"source":"CELESTRAK","updated_at":"2026-09-21T09:00:33.722068Z"}}}